DB0RV-13 Weather Reports


Display with metric or nautical units.
time (UTC)temp
F
wind
direction
speed
MPH
gust
MPH
rain 1hr
in
rain 24hr
in
rain mn
in
humidity
%
barometer
mb
20260508141002 66 111 3.0 0.0 0.00 0.00 0.00 44 1013.4
20260508140501 65 80 9.0 0.0 0.00 0.00 0.00 45 1013.5
20260508140002 65 108 4.0 0.0 0.00 0.00 0.00 47 1013.5
20260508135501 65 65 8.0 0.0 0.00 0.00 0.00 46 1013.6
20260508135002 65 82 6.0 0.0 0.00 0.00 0.00 48 1013.6
20260508134501 65 8 6.0 0.0 0.00 0.00 0.00 46 1013.6
20260508134001 66 25 10.0 0.0 0.00 0.00 0.00 46 1013.8
20260508133502 65 53 5.0 0.0 0.00 0.00 0.00 46 1013.8
20260508133001 65 35 7.0 0.0 0.00 0.00 0.00 47 1013.8
20260508132507 65 51 3.0 0.0 0.00 0.00 0.00 45 1014.0
20260508132001 65 177 3.0 0.0 0.00 0.00 0.00 47 1014.0
20260508131502 64 0 0.0 0.0 0.00 0.00 0.00 47 1014.0
20260508131001 64 133 3.0 0.0 0.00 0.00 0.00 49 1014.0
20260508130501 64 32 4.0 0.0 0.00 0.00 0.00 49 1014.1
20260508130001 64 108 2.0 0.0 0.00 0.00 0.00 50 1014.0
20260508125501 64 30 4.0 0.0 0.00 0.00 0.00 51 1014.0
20260508125002 63 1 2.0 0.0 0.00 0.00 0.00 51 1014.1
20260508124501 63 21 7.0 0.0 0.00 0.00 0.00 51 1014.2
20260508124002 63 80 9.0 0.0 0.00 0.00 0.00 51 1014.1
20260508123501 64 109 3.0 0.0 0.00 0.00 0.00 50 1014.3
20260508123002 63 88 4.0 0.0 0.00 0.00 0.00 50 1014.3
20260508122501 64 117 10.0 0.0 0.00 0.00 0.00 52 1014.3
20260508122002 64 38 13.0 0.0 0.00 0.00 0.00 53 1014.3
20260508121501 63 92 4.0 0.0 0.00 0.00 0.00 52 1014.3
20260508121001 62 75 3.0 0.0 0.00 0.00 0.00 53 1014.3
20260508120502 62 16 2.0 0.0 0.00 0.00 0.00 55 1014.5
20260508120001 62 100 3.0 0.0 0.00 0.00 0.00 54 1014.4
20260508115502 61 63 6.0 0.0 0.00 0.00 0.00 59 1014.4
20260508115001 62 43 7.0 0.0 0.00 0.00 0.00 57 1014.5
20260508114502 61 46 7.0 0.0 0.00 0.00 0.00 61 1014.4
20260508114002 62 32 8.0 0.0 0.00 0.00 0.00 59 1014.3
20260508113502 61 81 2.0 0.0 0.00 0.00 0.00 60 1014.5
20260508113001 60 20 3.0 0.0 0.00 0.00 0.00 59 1014.7
20260508112501 60 62 6.0 0.0 0.00 0.00 0.00 61 1014.6
20260508112001 60 93 4.0 0.0 0.00 0.00 0.00 63 1014.5
20260508111501 60 42 8.0 0.0 0.00 0.00 0.00 64 1014.6
20260508111002 59 30 10.0 0.0 0.00 0.00 0.00 66 1014.5
20260508110501 59 25 6.0 0.0 0.00 0.00 0.00 65 1014.7
20260508110002 58 355 2.0 0.0 0.00 0.00 0.00 66 1014.8
20260508105501 59 357 4.0 0.0 0.00 0.00 0.00 64 1015.0
20260508105002 58 343 4.0 0.0 0.00 0.00 0.00 66 1015.1
20260508104501 58 69 4.0 0.0 0.00 0.00 0.00 66 1015.1
20260508104002 57 68 2.0 0.0 0.00 0.00 0.00 68 1015.1
20260508103501 57 57 2.0 0.0 0.00 0.00 0.00 68 1015.0
20260508103001 56 327 2.0 0.0 0.00 0.00 0.00 71 1015.2
20260508102502 56 126 5.0 0.0 0.00 0.00 0.00 70 1015.2
20260508102001 56 34 6.0 0.0 0.00 0.00 0.00 69 1015.2
20260508101502 56 43 6.0 0.0 0.00 0.00 0.00 70 1015.2
20260508101001 55 27 6.0 0.0 0.00 0.00 0.00 73 1015.2
20260508100502 56 73 8.0 0.0 0.00 0.00 0.00 71 1015.4
20260508100001 55 64 4.0 0.0 0.00 0.00 0.00 71 1015.4
20260508095502 55 64 4.0 0.0 0.00 0.00 0.00 74 1015.5
20260508095001 53 7 4.0 0.0 0.00 0.00 0.00 75 1015.4
20260508094501 53 50 6.0 0.0 0.00 0.00 0.00 75 1015.5
20260508094002 53 48 9.0 0.0 0.00 0.00 0.00 77 1015.4
20260508093501 53 27 6.0 0.0 0.00 0.00 0.00 77 1015.4
20260508093002 52 46 3.0 0.0 0.00 0.00 0.00 77 1015.5
20260508092501 52 59 8.0 0.0 0.00 0.00 0.00 77 1015.5
20260508092002 52 73 4.0 0.0 0.00 0.00 0.00 79 1015.5
20260508091501 52 69 8.0 0.0 0.00 0.00 0.00 80 1015.3
20260508091002 51 43 8.0 0.0 0.00 0.00 0.00 79 1015.3
20260508090501 51 20 9.0 0.0 0.00 0.00 0.00 80 1015.4
20260508090001 51 0 3.0 0.0 0.00 0.00 0.00 82 1015.4
20260508085502 50 22 8.0 0.0 0.00 0.00 0.00 81 1015.4
20260508085002 50 25 8.0 0.0 0.00 0.00 0.00 81 1015.4
20260508084502 50 23 6.0 0.0 0.00 0.00 0.00 82 1015.4
20260508084001 51 28 6.0 0.0 0.00 0.00 0.00 81 1015.3
20260508083502 50 21 6.0 0.0 0.00 0.00 0.00 84 1015.5
20260508083001 49 69 6.0 0.0 0.00 0.00 0.00 84 1015.4
20260508082502 49 26 5.0 0.0 0.00 0.00 0.00 84 1015.4
20260508082001 48 25 4.0 0.0 0.00 0.00 0.00 87 1015.4
20260508081502 48 48 7.0 0.0 0.00 0.00 0.00 88 1015.4
20260508081001 47 19 6.0 0.0 0.00 0.00 0.00 88 1015.4
20260508080502 47 40 4.0 0.0 0.00 0.00 0.00 89 1015.3
20260508080002 46 29 8.0 0.0 0.00 0.00 0.00 91 1015.5
20260508075501 45 22 5.0 0.0 0.00 0.00 0.00 91 1015.3
20260508075002 45 30 10.0 0.0 0.00 0.00 0.00 92 1015.2
20260508074501 45 17 6.0 0.0 0.00 0.00 0.00 91 1015.3
20260508074002 45 36 10.0 0.0 0.00 0.00 0.00 92 1015.2
20260508073501 45 32 9.0 0.0 0.00 0.00 0.00 92 1015.2
20260508073002 44 40 6.0 0.0 0.00 0.00 0.00 92 1015.5
20260508072501 44 21 5.0 0.0 0.00 0.00 0.00 92 1015.4
20260508072002 44 44 6.0 0.0 0.00 0.00 0.00 93 1015.2
20260508071501 44 43 7.0 0.0 0.00 0.00 0.00 93 1015.4
20260508071002 44 46 8.0 0.0 0.00 0.00 0.00 93 1015.3
20260508070501 44 30 6.0 0.0 0.00 0.00 0.00 92 1015.3
20260508070001 44 36 8.0 0.0 0.00 0.00 0.00 92 1015.2
20260508065502 44 28 9.0 0.0 0.00 0.00 0.00 92 1015.2
20260508065001 43 27 9.0 0.0 0.00 0.00 0.00 91 1015.2
20260508064502 44 58 8.0 0.0 0.00 0.00 0.00 91 1015.2
20260508064001 44 63 4.0 0.0 0.00 0.00 0.00 90 1015.2
20260508063502 44 32 7.0 0.0 0.00 0.00 0.00 90 1015.1
20260508063001 44 45 7.0 0.0 0.00 0.00 0.00 89 1015.2
20260508062501 44 45 7.0 0.0 0.00 0.00 0.00 90 1015.0
20260508062002 44 71 3.0 0.0 0.00 0.00 0.00 89 1015.1
20260508061501 44 61 6.0 0.0 0.00 0.00 0.00 89 1014.9
20260508061002 45 31 9.0 0.0 0.00 0.00 0.00 89 1014.9
20260508060501 45 38 6.0 0.0 0.00 0.00 0.00 89 1014.9
20260508060002 44 46 6.0 0.0 0.00 0.00 0.00 89 1014.9
20260508055501 45 63 6.0 0.0 0.00 0.00 0.00 89 1014.9
20260508055002 44 39 10.0 0.0 0.00 0.00 0.00 90 1014.8
20260508054501 44 63 4.0 0.0 0.00 0.00 0.00 90 1014.7
20260508054001 44 54 3.0 0.0 0.00 0.00 0.00 91 1014.8
20260508053502 44 63 5.0 0.0 0.00 0.00 0.00 91 1014.7
20260508053001 44 57 4.0 0.0 0.00 0.00 0.00 92 1014.8
20260508052502 43 43 4.0 0.0 0.00 0.00 0.00 92 1014.6
20260508052001 43 43 5.0 0.0 0.00 0.00 0.00 92 1014.6
20260508051502 42 44 5.0 0.0 0.00 0.00 0.00 92 1014.5
20260508051001 42 43 4.0 0.0 0.00 0.00 0.00 92 1014.6
20260508050501 42 42 4.0 0.0 0.00 0.00 0.00 92 1014.6
20260508050002 42 42 5.0 0.0 0.00 0.00 0.00 93 1014.5
20260508045501 42 41 3.0 0.0 0.00 0.00 0.00 93 1014.6
20260508045002 42 33 4.0 0.0 0.00 0.00 0.00 93 1014.5
20260508044502 41 50 4.0 0.0 0.00 0.00 0.00 93 1014.3
20260508044002 41 47 4.0 0.0 0.00 0.00 0.00 93 1014.3
20260508043501 41 41 5.0 0.0 0.00 0.00 0.00 93 1014.3
20260508043002 41 39 6.0 0.0 0.00 0.00 0.00 93 1014.3
20260508042501 41 41 5.0 0.0 0.00 0.00 0.00 93 1014.3
20260508042002 41 41 6.0 0.0 0.00 0.00 0.00 92 1014.2
20260508041501 41 44 5.0 0.0 0.00 0.00 0.00 92 1014.2
20260508041001 42 42 5.0 0.0 0.00 0.00 0.00 92 1014.2
20260508040501 42 37 5.0 0.0 0.00 0.00 0.00 92 1014.1
20260508040001 42 42 5.0 0.0 0.00 0.00 0.00 92 1014.1
20260508035502 42 33 5.0 0.0 0.00 0.00 0.00 93 1014.0
20260508035001 42 28 5.0 0.0 0.00 0.00 0.00 92 1014.1
20260508034502 42 40 5.0 0.0 0.00 0.00 0.00 92 1014.1
20260508034001 42 42 6.0 0.0 0.00 0.00 0.00 92 1014.0
20260508033502 42 40 5.0 0.0 0.00 0.00 0.00 91 1014.1
20260508033001 42 34 5.0 0.0 0.00 0.00 0.00 91 1014.0
20260508032501 42 41 5.0 0.0 0.00 0.00 0.00 90 1014.1
20260508032001 43 39 4.0 0.0 0.00 0.00 0.00 90 1014.1
20260508031501 43 35 5.0 0.0 0.00 0.00 0.00 90 1014.1
20260508031002 43 43 4.0 0.0 0.00 0.00 0.00 89 1014.1
20260508030501 43 28 5.0 0.0 0.00 0.00 0.00 89 1014.0
20260508030001 44 43 4.0 0.0 0.00 0.00 0.00 88 1014.1
20260508025502 44 40 4.0 0.0 0.00 0.00 0.00 88 1014.0
20260508025001 44 37 4.0 0.0 0.00 0.00 0.00 88 1014.1
20260508024501 44 33 4.0 0.0 0.00 0.00 0.00 87 1014.1
20260508024002 44 22 6.0 0.0 0.00 0.00 0.00 87 1014.0
20260508023501 44 18 7.0 0.0 0.00 0.00 0.00 87 1014.0
20260508023001 45 13 7.0 0.0 0.00 0.00 0.00 86 1014.0
20260508022502 45 22 9.0 0.0 0.00 0.00 0.00 86 1013.9
20260508022001 45 5 6.0 0.0 0.00 0.00 0.00 86 1014.1
20260508021501 45 7 4.0 0.0 0.00 0.00 0.00 86 1014.1
20260508021002 45 13 5.0 0.0 0.00 0.00 0.00 85 1014.0
20260508020501 45 340 3.0 0.0 0.00 0.00 0.00 85 1014.1
20260508020001 45 18 4.0 0.0 0.00 0.00 0.00 86 1014.0
20260508015502 45 21 5.0 0.0 0.00 0.00 0.00 86 1014.1
20260508015001 45 2 5.0 0.0 0.00 0.00 0.00 85 1014.0
20260508014501 45 19 6.0 0.0 0.00 0.00 0.00 86 1014.0
20260508014002 45 22 6.0 0.0 0.00 0.00 0.00 86 1013.8
20260508013501 45 25 6.0 0.0 0.00 0.00 0.00 85 1014.1
20260508013001 45 29 4.0 0.0 0.00 0.00 0.00 86 1014.1
20260508012502 45 27 5.0 0.0 0.00 0.00 0.00 86 1014.0
20260508012001 45 27 5.0 0.0 0.00 0.00 0.00 86 1014.0
20260508011501 45 15 6.0 0.0 0.00 0.00 0.00 85 1014.0
20260508011001 45 22 6.0 0.0 0.00 0.00 0.00 85 1014.0
20260508010501 45 23 3.0 0.0 0.00 0.00 0.00 85 1014.0
20260508010001 46 27 5.0 0.0 0.00 0.00 0.00 86 1014.1
20260508005502 46 40 5.0 0.0 0.00 0.00 0.00 85 1014.1
20260508005002 46 37 5.0 0.0 0.00 0.00 0.00 85 1014.2
20260508004501 46 34 6.0 0.0 0.00 0.00 0.00 85 1014.1
20260508004001 46 43 6.0 0.0 0.00 0.00 0.00 85 1014.1
20260508003502 46 39 4.0 0.0 0.00 0.00 0.00 85 1014.3
20260508003001 46 34 5.0 0.0 0.00 0.00 0.00 85 1014.2
20260508002501 46 43 5.0 0.0 0.00 0.00 0.00 85 1014.2
20260508002002 46 38 6.0 0.0 0.00 0.00 0.00 85 1014.2
20260508001501 46 40 5.0 0.0 0.00 0.00 0.00 84 1014.3
20260508001001 46 28 7.0 0.0 0.00 0.00 0.00 83 1014.3
20260508000502 47 13 6.0 0.0 0.00 0.00 0.00 84 1014.3
20260508000001 47 21 6.0 0.0 0.00 0.00 0.00 84 1014.4
20260507235501 46 25 5.0 0.0 0.00 0.00 0.00 84 1014.4
20260507235002 46 40 6.0 0.0 0.00 0.00 0.00 84 1014.6
20260507234501 46 24 6.0 0.0 0.00 0.00 0.00 84 1014.3
20260507234001 47 26 6.0 0.0 0.00 0.00 0.00 84 1014.5
20260507233502 47 21 8.0 0.0 0.00 0.00 0.00 83 1014.6
20260507233001 47 24 9.0 0.0 0.00 0.00 0.00 83 1014.5
20260507232501 47 20 7.0 0.0 0.00 0.00 0.00 83 1014.7
20260507232002 47 30 6.0 0.0 0.00 0.00 0.00 82 1014.7
20260507231501 47 32 6.0 0.0 0.00 0.00 0.00 83 1014.7
20260507231001 47 21 6.0 0.0 0.00 0.00 0.00 83 1014.7
20260507230502 47 28 5.0 0.0 0.00 0.00 0.00 83 1014.8
20260507230001 47 23 5.0 0.0 0.00 0.00 0.00 83 1014.8
20260507225501 47 29 5.0 0.0 0.00 0.00 0.00 83 1014.9
20260507225002 48 24 5.0 0.0 0.00 0.00 0.00 83 1014.8
20260507224501 47 34 5.0 0.0 0.00 0.00 0.00 83 1014.9
20260507224001 48 38 5.0 0.0 0.00 0.00 0.00 83 1015.0
20260507223502 48 41 5.0 0.0 0.00 0.00 0.00 83 1014.9
20260507223001 48 38 6.0 0.0 0.00 0.00 0.00 82 1015.0
20260507222501 48 45 6.0 0.0 0.00 0.00 0.00 82 1014.9
20260507222003 48 48 5.0 0.0 0.00 0.00 0.00 82 1015.0
20260507221502 48 36 6.0 0.0 0.00 0.00 0.00 82 1015.1
20260507221001 48 40 5.0 0.0 0.00 0.00 0.00 81 1015.1
20260507220502 49 36 5.0 0.0 0.00 0.00 0.00 81 1015.1
20260507220002 49 41 6.0 0.0 0.00 0.00 0.00 81 1015.2
20260507215501 49 36 6.0 0.0 0.00 0.00 0.00 81 1015.1
20260507215002 49 30 6.0 0.0 0.00 0.00 0.00 81 1015.1
20260507214502 49 40 5.0 0.0 0.00 0.00 0.00 81 1015.0
20260507214001 49 28 6.0 0.0 0.00 0.00 0.00 81 1014.9
20260507213502 49 40 6.0 0.0 0.00 0.00 0.00 80 1015.1
20260507213002 49 43 6.0 0.0 0.00 0.00 0.00 80 1015.0
20260507212501 49 38 4.0 0.0 0.00 0.00 0.00 80 1014.9
20260507212002 50 27 6.0 0.0 0.00 0.00 0.00 79 1014.9
20260507211502 50 22 6.0 0.0 0.00 0.00 0.00 79 1014.8
20260507211001 50 48 6.0 0.0 0.00 0.00 0.00 79 1014.8
20260507210502 50 55 3.0 0.0 0.00 0.00 0.00 78 1014.9
20260507210005 50 57 3.0 0.0 0.00 0.00 0.00 78 1014.9
20260507205502 51 48 4.0 0.0 0.00 0.00 0.00 78 1014.8
20260507205002 51 33 5.0 0.0 0.00 0.00 0.00 78 1014.7
20260507204502 51 63 7.0 0.0 0.00 0.00 0.00 78 1014.7
20260507204001 51 39 4.0 0.0 0.00 0.00 0.00 77 1014.7
20260507203502 51 66 6.0 0.0 0.00 0.00 0.00 77 1014.8
20260507203002 51 71 4.0 0.0 0.00 0.00 0.00 77 1014.8
20260507202501 51 71 4.0 0.0 0.00 0.00 0.00 77 1014.8
20260507202001 51 65 8.0 0.0 0.00 0.00 0.00 77 1014.7
20260507201502 51 97 4.0 0.0 0.00 0.00 0.00 76 1014.7
20260507201001 52 52 5.0 0.0 0.00 0.00 0.00 76 1014.7
20260507200502 52 41 5.0 0.0 0.00 0.00 0.00 77 1014.6
20260507200002 52 47 5.0 0.0 0.00 0.00 0.00 77 1014.6
20260507195501 52 55 3.0 0.0 0.00 0.00 0.00 77 1014.6
20260507195001 52 65 5.0 0.0 0.00 0.00 0.00 77 1014.7
20260507194502 52 58 3.0 0.0 0.00 0.00 0.00 77 1014.6
20260507194001 52 36 7.0 0.0 0.00 0.00 0.00 76 1014.5
20260507193501 52 29 6.0 0.0 0.00 0.00 0.00 75 1014.4
20260507193002 52 38 8.0 0.0 0.00 0.00 0.00 74 1014.2
20260507192501 52 38 7.0 0.0 0.00 0.00 0.00 73 1014.3
20260507192002 53 45 8.0 0.0 0.00 0.00 0.00 72 1014.0
20260507191502 53 41 9.0 0.0 0.00 0.00 0.00 71 1014.0
20260507191001 53 45 5.0 0.0 0.00 0.00 0.00 69 1014.0
20260507190502 53 29 5.0 0.0 0.00 0.00 0.00 69 1013.9
20260507190002 54 43 5.0 0.0 0.00 0.00 0.00 68 1013.9
20260507185502 54 43 5.0 0.0 0.00 0.00 0.00 67 1013.8
20260507185001 55 21 7.0 0.0 0.00 0.00 0.00 64 1013.7
20260507184502 56 21 5.0 0.0 0.00 0.00 0.00 62 1013.7
20260507184002 56 7 3.0 0.0 0.00 0.00 0.00 62 1013.8
20260507183501 55 4 3.0 0.0 0.00 0.00 0.00 64 1013.6
20260507183002 56 6 4.0 0.0 0.00 0.00 0.00 62 1013.7
20260507182502 57 12 4.0 0.0 0.00 0.00 0.00 61 1013.6
20260507182003 57 18 5.0 0.0 0.00 0.00 0.00 61 1013.4
20260507181501 57 24 3.0 0.0 0.00 0.00 0.00 60 1013.4
20260507181002 57 23 5.0 0.0 0.00 0.00 0.00 60 1013.5
20260507180501 56 23 6.0 0.0 0.00 0.00 0.00 61 1013.4
20260507180002 57 28 5.0 0.0 0.00 0.00 0.00 58 1013.4
20260507175502 58 23 6.0 0.0 0.00 0.00 0.00 57 1013.3
20260507175001 58 22 6.0 0.0 0.00 0.00 0.00 56 1013.2
20260507174502 58 345 5.0 0.0 0.00 0.00 0.00 55 1013.2
20260507174001 58 342 4.0 0.0 0.00 0.00 0.00 57 1013.2
20260507173502 58 33 4.0 0.0 0.00 0.00 0.00 57 1013.3
20260507173001 58 75 4.0 0.0 0.00 0.00 0.00 57 1013.3
20260507172502 58 44 4.0 0.0 0.00 0.00 0.00 58 1013.2
20260507172001 57 42 4.0 0.0 0.00 0.00 0.00 58 1013.3
20260507171502 58 55 4.0 0.0 0.00 0.00 0.00 56 1013.1
20260507171002 57 41 3.0 0.0 0.00 0.00 0.00 57 1013.1
20260507170501 58 40 7.0 0.0 0.00 0.00 0.00 57 1013.0
20260507170002 59 23 6.0 0.0 0.00 0.00 0.00 56 1013.1
20260507165501 59 25 2.0 0.0 0.00 0.00 0.00 55 1013.2
20260507165002 59 44 3.0 0.0 0.00 0.00 0.00 57 1013.2
20260507164502 58 349 3.0 0.0 0.00 0.00 0.00 57 1013.1
20260507164002 58 341 7.0 0.0 0.00 0.00 0.00 57 1013.2
20260507163501 58 354 3.0 0.0 0.00 0.00 0.00 58 1013.0
20260507163002 58 343 10.0 0.0 0.00 0.00 0.00 60 1013.2
20260507162502 57 24 5.0 0.0 0.00 0.00 0.00 59 1013.1
20260507162002 58 54 6.0 0.0 0.00 0.00 0.00 58 1013.0
20260507161502 59 27 8.0 0.0 0.00 0.00 0.00 58 1013.1
20260507161001 58 342 7.0 0.0 0.00 0.00 0.00 57 1013.0
20260507160502 59 8 3.0 0.0 0.00 0.00 0.00 56 1013.2
20260507160001 59 359 6.0 0.0 0.00 0.00 0.00 57 1013.1
20260507155502 59 12 9.0 0.0 0.00 0.00 0.00 58 1013.0
20260507155001 58 11 6.0 0.0 0.00 0.00 0.00 57 1013.1
20260507154502 58 348 9.0 0.0 0.00 0.00 0.00 58 1013.2
20260507154002 57 12 5.0 0.0 0.00 0.00 0.00 59 1013.1
20260507153501 58 15 2.0 0.0 0.00 0.00 0.00 60 1013.1
20260507153004 57 329 6.0 0.0 0.00 0.00 0.00 60 1013.0
20260507152501 57 329 4.0 0.0 0.00 0.00 0.00 61 1013.1
20260507152002 58 355 2.0 0.0 0.00 0.00 0.00 60 1013.2
20260507151501 57 350 3.0 0.0 0.00 0.00 0.00 62 1013.1
20260507151002 58 6 3.0 0.0 0.00 0.00 0.00 62 1013.0
20260507150501 57 337 1.0 0.0 0.00 0.00 0.00 63 1013.1
20260507150002 58 57 4.0 0.0 0.00 0.00 0.00 62 1013.2
20260507145502 57 308 3.0 0.0 0.00 0.00 0.00 62 1013.2
20260507145002 57 25 7.0 0.0 0.00 0.00 0.00 64 1013.1
20260507144502 57 42 4.0 0.0 0.00 0.00 0.00 64 1013.2
20260507144001 57 340 8.0 0.0 0.00 0.00 0.00 65 1013.1
20260507143502 57 17 7.0 0.0 0.00 0.00 0.00 65 1013.1
20260507143001 57 344 6.0 0.0 0.00 0.00 0.00 64 1013.1
20260507142502 56 0 4.0 0.0 0.00 0.00 0.00 64 1013.2
20260507142001 57 328 9.0 0.0 0.00 0.00 0.00 65 1013.2
20260507141502 56 314 11.0 0.0 0.00 0.00 0.00 65 1012.9